{"data":{"norad_id":68311,"intl_designator":"2026-057T","name":"STARLINK-37140","alt_names":[],"object_type":"PAYLOAD","status":"ACTIVE","operator":null,"country":"US","launch_date":"2026-03-20","launch_site_code":"AFWTR","launch_vehicle":null,"mission":null,"orbit_class":"UNKNOWN","rcs_meters":null,"size_class":null,"mass_kg":null,"dimensions":null,"purposes":["comms"],"wikipedia_slug":null,"has_3d_model":false,"image_url":null,"decayed_at":null,"tle_current":{"epoch":"2026-09-19T14:21:17.676864Z","epoch_age_seconds":126384,"freshness":"FRESH","line1":"1 68311U 26057T   26262.59812126  .00014410  00000+0  44775-3 0  9990","line2":"2 68311  97.2845  27.9846 0001080 274.4694  85.6425 15.33450456 28373","mean_motion":15.33450456,"eccentricity":0.000108,"inclination_deg":97.2845,"raan_deg":27.9846,"arg_perigee_deg":274.4694,"mean_anomaly_deg":85.6425,"bstar":0.00044775,"rev_number":2837,"period_min":93.905870539583,"perigee_km":464.78782560322,"apogee_km":466.26605701455,"semimajor_km":6843.6639413089,"source":"CELESTRAK","updated_at":"2026-09-20T09:00:43.879542Z"}}}